• In Sweden
  • List of Countries
  • For 7 days
  • Water Temperature
  • Satellite Maps
  • Weather Map
  • Weather Widgets
  • user-avatar
    Login

    Hourly Weather Zachistiki

    Today, 18 August, Saturday

    Time Temperature Precipitation Wind Pressure Humidity
    00:00 +17°C° 0 mm 2 mps 753 mmHg 94%
    01:00 +17°C° 0 mm 2 mps 753 mmHg 95%
    02:00 +16°C° 0 mm 2 mps 753 mmHg 96%
    03:00 +16°C° 0 mm 2 mps 753 mmHg 96%
    04:00 +16°C° 0 mm 2 mps 753 mmHg 96%
    05:00 +16°C° 0 mm 2 mps 753 mmHg 97%
    06:00 +17°C° 0 mm 2 mps 753 mmHg 92%
    07:00 +19°C° 0 mm 2 mps 753 mmHg 88%
    08:00 +20°C° 0 mm 2 mps 753 mmHg 82%
    09:00 +23°C° 0.2 mm 2 mps 753 mmHg 78%
    10:00 +24°C° 0.2 mm 2 mps 753 mmHg 74%
    11:00 +25°C° 0.2 mm 2 mps 753 mmHg 69%
    12:00 +26°C° 0.2 mm 2 mps 752 mmHg 67%
    13:00 +26°C° 0.2 mm 2 mps 752 mmHg 65%
    14:00 +27°C° 0.2 mm 2 mps 752 mmHg 62%
    15:00 +26°C° 0.4 mm 2 mps 752 mmHg 66%
    16:00 +26°C° 0.4 mm 2 mps 752 mmHg 70%
    17:00 +26°C° 0.4 mm 2 mps 752 mmHg 75%
    18:00 +24°C° 0.1 mm 2 mps 751 mmHg 80%
    19:00 +23°C° 0.1 mm 2 mps 751 mmHg 85%
    20:00 +20°C° 0.1 mm 2 mps 751 mmHg 90%
    21:00 +20°C° 0.3 mm 2 mps 751 mmHg 91%
    22:00 +19°C° 0.3 mm 2 mps 751 mmHg 93%
    23:00 +19°C° 0.3 mm 2 mps 751 mmHg 94%

    Tomorrow, 19 August, Sunday

    Time Temperature Precipitation Wind Pressure Humidity
    00:00 +18°C° 0.2 mm 2 mps 751 mmHg 94%
    01:00 +18°C° 0.2 mm 2 mps 751 mmHg 95%
    02:00 +18°C° 0.2 mm 2 mps 751 mmHg 95%
    03:00 +17°C° 0 mm 2 mps 751 mmHg 95%
    04:00 +17°C° 0 mm 2 mps 751 mmHg 96%
    05:00 +17°C° 0 mm 2 mps 751 mmHg 96%
    06:00 +17°C° 0 mm 2 mps 751 mmHg 94%
    07:00 +18°C° 0 mm 2 mps 752 mmHg 92%
    08:00 +19°C° 0 mm 3 mps 752 mmHg 90%
    09:00 +20°C° 0 mm 3 mps 752 mmHg 82%
    10:00 +21°C° 0 mm 3 mps 752 mmHg 74%
    11:00 +22°C° 0 mm 3 mps 752 mmHg 67%
    12:00 +22°C° 0 mm 3 mps 752 mmHg 62%
    13:00 +23°C° 0 mm 4 mps 752 mmHg 57%
    14:00 +25°C° 0 mm 4 mps 751 mmHg 52%
    15:00 +23°C° 0 mm 4 mps 751 mmHg 57%
    16:00 +24°C° 0 mm 3 mps 751 mmHg 61%
    17:00 +24°C° 0 mm 3 mps 751 mmHg 66%
    18:00 +21°C° 0 mm 3 mps 751 mmHg 73%
    19:00 +20°C° 0 mm 2 mps 751 mmHg 80%
    20:00 +19°C° 0 mm 2 mps 752 mmHg 87%
    21:00 +18°C° 0 mm 2 mps 752 mmHg 89%
    22:00 +17°C° 0 mm 2 mps 752 mmHg 92%
    23:00 +17°C° 0 mm 2 mps 752 mmHg 94%

    Day after tomorrow, 20 August, Monday

    Time Temperature Precipitation Wind Pressure Humidity
    00:00 +16°C° 0 mm 2 mps 752 mmHg 95%
    01:00 +16°C° 0 mm 2 mps 752 mmHg 95%
    02:00 +16°C° 0 mm 2 mps 751 mmHg 96%
    03:00 +16°C° 0 mm 2 mps 751 mmHg 96%
    04:00 +15°C° 0 mm 2 mps 751 mmHg 96%
    05:00 +15°C° 0 mm 2 mps 751 mmHg 96%
    06:00 +17°C° 0 mm 2 mps 751 mmHg 92%
    07:00 +18°C° 0 mm 2 mps 751 mmHg 87%
    08:00 +19°C° 0 mm 2 mps 751 mmHg 83%
    09:00 +20°C° 0 mm 3 mps 751 mmHg 77%
    10:00 +22°C° 0 mm 3 mps 751 mmHg 71%
    11:00 +24°C° 0 mm 3 mps 751 mmHg 66%
    12:00 +25°C° 0.2 mm 4 mps 750 mmHg 65%
    13:00 +25°C° 0.2 mm 4 mps 750 mmHg 64%
    14:00 +26°C° 0.2 mm 4 mps 749 mmHg 63%
    15:00 +25°C° 0.9 mm 4 mps 749 mmHg 68%
    16:00 +25°C° 0.9 mm 3 mps 748 mmHg 72%
    17:00 +24°C° 0.9 mm 3 mps 748 mmHg 77%
    18:00 +22°C° 0.3 mm 3 mps 748 mmHg 80%
    19:00 +21°C° 0.3 mm 3 mps 748 mmHg 84%
    20:00 +20°C° 0.3 mm 3 mps 747 mmHg 87%
    21:00 +19°C° 0.3 mm 3 mps 747 mmHg 89%
    22:00 +19°C° 0.3 mm 4 mps 746 mmHg 90%
    23:00 +19°C° 0.3 mm 4 mps 746 mmHg 91%

    21 August, Tuesday

    Time Temperature Precipitation Wind Pressure Humidity
    00:00 +19°C° 0.5 mm 4 mps 746 mmHg 91%
    01:00 +18°C° 0.5 mm 4 mps 745 mmHg 92%
    02:00 +17°C° 0.5 mm 5 mps 744 mmHg 92%
    03:00 +18°C° 0.3 mm 4 mps 744 mmHg 93%
    04:00 +18°C° 0.3 mm 4 mps 744 mmHg 94%
    05:00 +17°C° 0.3 mm 4 mps 744 mmHg 95%
    06:00 +17°C° 0.1 mm 5 mps 744 mmHg 94%
    07:00 +17°C° 0.1 mm 5 mps 744 mmHg 92%
    08:00 +17°C° 0.1 mm 5 mps 745 mmHg 91%
    09:00 +19°C° 0.2 mm 5 mps 745 mmHg 85%
    10:00 +19°C° 0.2 mm 5 mps 746 mmHg 79%
    11:00 +20°C° 0.2 mm 5 mps 746 mmHg 72%
    12:00 +21°C° 0.1 mm 6 mps 746 mmHg 66%
    13:00 +21°C° 0.1 mm 6 mps 747 mmHg 59%
    14:00 +22°C° 0.1 mm 6 mps 747 mmHg 53%
    15:00 +21°C° 0 mm 5 mps 748 mmHg 54%
    16:00 +21°C° 0 mm 5 mps 748 mmHg 56%
    17:00 +21°C° 0 mm 5 mps 748 mmHg 57%
    18:00 +19°C° 0 mm 4 mps 749 mmHg 61%
    19:00 +17°C° 0 mm 4 mps 749 mmHg 64%
    20:00 +16°C° 0 mm 3 mps 750 mmHg 68%
    21:00 +14°C° 0 mm 3 mps 751 mmHg 71%
    22:00 +13°C° 0 mm 3 mps 751 mmHg 74%
    23:00 +12°C° 0 mm 3 mps 752 mmHg 78%

    22 August, Wednesday

    Time Temperature Precipitation Wind Pressure Humidity
    00:00 +11°C° 0 mm 3 mps 752 mmHg 81%
    01:00 +11°C° 0 mm 3 mps 752 mmHg 85%
    02:00 +10°C° 0 mm 3 mps 753 mmHg 88%
    03:00 +10°C° 0 mm 3 mps 753 mmHg 90%
    04:00 +9°C° 0 mm 3 mps 754 mmHg 92%
    05:00 +9°C° 0 mm 3 mps 754 mmHg 94%
    06:00 +10°C° 0 mm 3 mps 755 mmHg 87%
    07:00 +12°C° 0 mm 3 mps 755 mmHg 80%
    08:00 +13°C° 0 mm 3 mps 756 mmHg 73%
    09:00 +16°C° 0 mm 3 mps 756 mmHg 66%
    10:00 +17°C° 0 mm 3 mps 756 mmHg 59%
    11:00 +19°C° 0 mm 3 mps 756 mmHg 51%
    12:00 +19°C° 0 mm 2 mps 756 mmHg 49%
    13:00 +20°C° 0 mm 2 mps 756 mmHg 47%
    14:00 +21°C° 0 mm 2 mps 756 mmHg 45%
    15:00 +20°C° 0 mm 2 mps 756 mmHg 47%
    16:00 +20°C° 0 mm 2 mps 756 mmHg 49%
    17:00 +21°C° 0 mm 1 mps 756 mmHg 50%
    18:00 +19°C° 0 mm 1 mps 756 mmHg 56%
    19:00 +18°C° 0 mm 1 mps 756 mmHg 62%
    20:00 +15°C° 0 mm 1 mps 756 mmHg 67%
    21:00 +14°C° 0 mm 1 mps 756 mmHg 69%
    22:00 +13°C° 0 mm 2 mps 756 mmHg 71%
    23:00 +13°C° 0 mm 2 mps 756 mmHg 73%

    23 August, Thursday

    Time Temperature Precipitation Wind Pressure Humidity
    00:00 +12°C° 0 mm 2 mps 756 mmHg 74%
    01:00 +12°C° 0 mm 2 mps 756 mmHg 75%
    02:00 +12°C° 0 mm 2 mps 756 mmHg 77%
    03:00 +10°C° 0 mm 2 mps 756 mmHg 78%
    04:00 +10°C° 0 mm 2 mps 756 mmHg 79%
    05:00 +10°C° 0 mm 2 mps 756 mmHg 80%
    06:00 +12°C° 0 mm 3 mps 756 mmHg 76%
    07:00 +13°C° 0 mm 3 mps 756 mmHg 72%
    08:00 +16°C° 0 mm 3 mps 756 mmHg 68%
    09:00 +18°C° 0 mm 3 mps 755 mmHg 63%
    10:00 +19°C° 0 mm 3 mps 755 mmHg 58%
    11:00 +21°C° 0 mm 3 mps 755 mmHg 53%
    12:00 +22°C° 0 mm 3 mps 755 mmHg 52%
    13:00 +22°C° 0 mm 3 mps 754 mmHg 50%
    14:00 +24°C° 0 mm 3 mps 754 mmHg 49%
    15:00 +24°C° 0 mm 3 mps 754 mmHg 52%
    16:00 +24°C° 0 mm 3 mps 753 mmHg 55%
    17:00 +22°C° 0 mm 3 mps 753 mmHg 58%
    18:00 +20°C° 0 mm 2 mps 753 mmHg 64%
    19:00 +18°C° 0 mm 2 mps 753 mmHg 70%
    20:00 +16°C° 0 mm 2 mps 753 mmHg 76%
    21:00 +16°C° 0 mm 2 mps 753 mmHg 77%
    22:00 +15°C° 0 mm 2 mps 753 mmHg 78%
    23:00 +14°C° 0 mm 2 mps 752 mmHg 80%
    Show more